Perry, FL

8:54 AM EST on December 11, 2016 (GMT -0500)
Perry

Weather History for K40J - November, 2012

Change the Weather History Date:

Thursday, November 22, 2012

  Actual Average (KVLD) Record (KVLD)
Temperature  
Mean Temperature 54 °F -  
Max Temperature 71 °F 68 °F 83 °F (2013)
Min Temperature 37 °F 45 °F 26 °F (2000)
Degree Days  
Heating Degree Days 11    
Growing Degree Days 4 (Base 50)    
Moisture  
Dew Point 39 °F    
Average Humidity 67    
Maximum Humidity 96    
Minimum Humidity 26    
Precipitation  
Precipitation 0.00 in - - ()
Sea Level Pressure  
Sea Level Pressure 30.18 in    
Wind  
Wind Speed 2 mph (North)    
Max Wind Speed 8 mph    
Max Gust Speed 17 mph    
Averages and records for this station are not official NWS values.
T = Trace of Precipitation, MM = Missing Value Source: NWS Daily Summary

Daily Weather History Graph

Daily Weather History Graph

Search for Another Location

Airport or City:

Trip Planner

Search our weather history database for the weather conditions in past years. The results will help you decide how hot, cold, wet, or windy it might be!

Date:

Astronomy

Nov. 22, 2012 Rise Set
Actual Time 7:05 AM EST 5:35 PM EST
Civil Twilight 6:40 AM EST 6:00 PM EST
Nautical Twilight 6:10 AM EST 6:30 PM EST
Astronomical Twilight 5:42 AM EST 6:58 PM EST
Moon 2:01 PM EST (11/22) 1:46 AM EST (11/22)
Length of Visible Light 11h 20m
Length of Day
10h 29m
Waxing Gibbous, 71% of the Moon is Illuminated
Nov 22
Waxing Gibbous
Nov 28
Full
Dec 6
Last Quarter
Dec 13
New
Dec 20
First Quarter

Hourly Weather History & Observations

Time (EST) Temp. Dew Point Humidity Pressure Visibility Wind Dir Wind Speed Gust Speed Precip Events Conditions
12:53 AM 44.1 °F 42.1 °F 93% 30.14 in - Calm Calm - N/A   Unknown
1:53 AM 44.1 °F 41.0 °F 89% 30.14 in - Calm Calm - N/A   Unknown
2:53 AM 44.1 °F 41.0 °F 89% 30.14 in - Calm Calm - N/A   Unknown
3:53 AM 39.0 °F 37.9 °F 96% 30.15 in - Calm Calm - N/A   Unknown
4:53 AM 41.0 °F 39.9 °F 96% 30.15 in - Calm Calm - N/A   Unknown
5:53 AM 39.9 °F 37.9 °F 93% 30.16 in - Calm Calm - N/A   Unknown
6:53 AM 37.0 °F 35.1 °F 93% 30.18 in - Calm Calm - N/A   Unknown
7:53 AM 41.0 °F 39.9 °F 96% 30.20 in - Calm Calm - N/A   Unknown
8:53 AM 53.1 °F 41.0 °F 64% 30.22 in - NE 5.8 mph - N/A   Unknown
9:53 AM 59.0 °F 39.0 °F 48% 30.23 in - NNE 6.9 mph - N/A   Unknown
10:53 AM 64.9 °F 39.9 °F 40% 30.23 in - Variable 6.9 mph - N/A   Unknown
11:53 AM 66.9 °F 34.0 °F 30% 30.21 in - Variable 6.9 mph - N/A   Unknown
12:53 PM 70.0 °F 33.1 °F 26% 30.19 in - NNE 8.1 mph 17.3 mph N/A   Unknown
1:53 PM 71.1 °F 34.0 °F 26% 30.17 in - Variable 6.9 mph - N/A   Unknown
2:53 PM 71.1 °F 35.1 °F 27% 30.14 in - NNW 8.1 mph - N/A   Unknown
3:53 PM 71.1 °F 36.0 °F 28% 30.14 in - NNW 6.9 mph - N/A   Unknown
4:53 PM 69.1 °F 37.0 °F 31% 30.16 in - North 5.8 mph - N/A   Unknown
5:53 PM 57.0 °F 41.0 °F 55% 30.17 in - Calm Calm - N/A   Unknown
6:53 PM 52.0 °F 41.0 °F 66% 30.18 in - Calm Calm - N/A   Unknown
7:53 PM 48.0 °F 42.1 °F 80% 30.20 in - Calm Calm - N/A   Unknown
8:53 PM 46.9 °F 41.0 °F 80% 30.21 in - Calm Calm - N/A   Unknown
9:53 PM 45.0 °F 41.0 °F 86% 30.21 in - Calm Calm - N/A   Unknown
10:53 PM 42.1 °F 39.0 °F 89% 30.21 in - Calm Calm - N/A   Unknown
11:53 PM 42.1 °F 39.9 °F 92% 30.20 in - Calm Calm - N/A   Unknown